WORLDVIEW-3 (WV-3)

Last updated on Fri Nov 07 2025 00:02:32 GMT+0000 (Coordinated Universal Time)

1 40115U 14048A 25310.26469012 .00001680 00000+0 20149-3 0 9992 2 40115 97.8651 23.0001 0004239 333.9688 26.1314 14.85368513608828
UTC large
Height (km)
Speed (km/s)
/
Latitude / Longitude
Inclination (degrees)
Orbital Period (minutes)
Azimuth
Elevation
Range (km)
Doppler Factor

Next 0 passes for location: London (51.5072 / 0.1276)

Sorry there are no passes over London.